Hourly Weather Satif

Today, 30 September, Wednesday

Time Temperature Precipitation Wind Pressure Humidity
00:00 +20°C° 0 mm 2 mps 673 mmHg 44%
01:00 +19°C° 0 mm 2 mps 673 mmHg 47%
02:00 +19°C° 0 mm 2 mps 672 mmHg 50%
03:00 +18°C° 0 mm 2 mps 672 mmHg 53%
04:00 +18°C° 0 mm 2 mps 672 mmHg 54%
05:00 +18°C° 0 mm 2 mps 672 mmHg 55%
06:00 +18°C° 0 mm 2 mps 672 mmHg 56%
07:00 +20°C° 0 mm 2 mps 673 mmHg 50%
08:00 +23°C° 0 mm 2 mps 673 mmHg 45%
09:00 +25°C° 0 mm 2 mps 674 mmHg 39%
10:00 +26°C° 0 mm 2 mps 674 mmHg 36%
11:00 +27°C° 0 mm 3 mps 674 mmHg 32%
12:00 +29°C° 0 mm 3 mps 674 mmHg 29%
13:00 +29°C° 0 mm 3 mps 674 mmHg 30%
14:00 +29°C° 0 mm 3 mps 673 mmHg 31%
15:00 +29°C° 0 mm 3 mps 673 mmHg 31%
16:00 +27°C° 0 mm 3 mps 672 mmHg 39%
17:00 +25°C° 0 mm 2 mps 672 mmHg 47%
18:00 +24°C° 0 mm 1 mps 672 mmHg 55%
19:00 +23°C° 0 mm 1 mps 672 mmHg 58%
20:00 +22°C° 0 mm 1 mps 672 mmHg 61%
21:00 +22°C° 0 mm 1 mps 672 mmHg 65%
22:00 +21°C° 0 mm 1 mps 671 mmHg 66%
23:00 +21°C° 0 mm 1 mps 671 mmHg 68%

Tomorrow, 1 October, Thursday

Time Temperature Precipitation Wind Pressure Humidity
00:00 +19°C° 0 mm 0 mps 671 mmHg 69%
01:00 +18°C° 0 mm 0 mps 670 mmHg 70%
02:00 +18°C° 0 mm 0 mps 669 mmHg 71%
03:00 +18°C° 0 mm 0 mps 669 mmHg 72%
04:00 +18°C° 0 mm 0 mps 669 mmHg 72%
05:00 +19°C° 0 mm 1 mps 669 mmHg 72%
06:00 +19°C° 0 mm 1 mps 669 mmHg 73%
07:00 +21°C° 0 mm 1 mps 670 mmHg 64%
08:00 +22°C° 0 mm 1 mps 670 mmHg 56%
09:00 +23°C° 0 mm 1 mps 671 mmHg 47%
10:00 +24°C° 0 mm 1 mps 671 mmHg 42%
11:00 +26°C° 0 mm 2 mps 671 mmHg 36%
12:00 +27°C° 0 mm 2 mps 671 mmHg 30%
13:00 +27°C° 0 mm 3 mps 671 mmHg 29%
14:00 +27°C° 0 mm 3 mps 670 mmHg 28%
15:00 +27°C° 0 mm 4 mps 670 mmHg 27%
16:00 +26°C° 0 mm 3 mps 670 mmHg 32%
17:00 +25°C° 0 mm 2 mps 669 mmHg 38%
18:00 +23°C° 0 mm 2 mps 669 mmHg 43%
19:00 +23°C° 0 mm 1 mps 669 mmHg 47%
20:00 +22°C° 0 mm 1 mps 669 mmHg 50%
21:00 +21°C° 0 mm 1 mps 669 mmHg 54%
22:00 +21°C° 0 mm 1 mps 669 mmHg 55%
23:00 +21°C° 0 mm 1 mps 668 mmHg 55%

Day after tomorrow, 2 October, Friday

Time Temperature Precipitation Wind Pressure Humidity
00:00 +20°C° 0 mm 1 mps 668 mmHg 56%
01:00 +20°C° 0 mm 1 mps 667 mmHg 54%
02:00 +19°C° 0 mm 2 mps 667 mmHg 52%
03:00 +19°C° 0 mm 2 mps 666 mmHg 50%
04:00 +18°C° 0 mm 2 mps 666 mmHg 50%
05:00 +18°C° 0 mm 3 mps 666 mmHg 51%
06:00 +18°C° 0 mm 3 mps 666 mmHg 51%
07:00 +20°C° 0 mm 5 mps 666 mmHg 43%
08:00 +22°C° 0 mm 6 mps 667 mmHg 35%
09:00 +24°C° 0 mm 8 mps 667 mmHg 26%
10:00 +24°C° 0 mm 8 mps 667 mmHg 29%
11:00 +26°C° 0 mm 9 mps 667 mmHg 32%
12:00 +27°C° 0 mm 9 mps 667 mmHg 35%
13:00 +27°C° 0 mm 10 mps 666 mmHg 36%
14:00 +27°C° 0 mm 11 mps 666 mmHg 38%
15:00 +27°C° 0 mm 11 mps 665 mmHg 39%
16:00 +26°C° 0 mm 10 mps 665 mmHg 43%
17:00 +24°C° 0 mm 8 mps 665 mmHg 47%
18:00 +23°C° 0 mm 6 mps 664 mmHg 51%
19:00 +23°C° 0 mm 6 mps 665 mmHg 50%
20:00 +22°C° 0 mm 5 mps 665 mmHg 50%
21:00 +22°C° 0 mm 4 mps 665 mmHg 49%
22:00 +21°C° 0 mm 4 mps 665 mmHg 51%
23:00 +20°C° 0 mm 3 mps 664 mmHg 52%

3 October, Saturday

Time Temperature Precipitation Wind Pressure Humidity
00:00 +19°C° 0 mm 3 mps 664 mmHg 53%
01:00 +18°C° 0 mm 3 mps 664 mmHg 55%
02:00 +17°C° 0 mm 3 mps 664 mmHg 58%
03:00 +17°C° 0 mm 4 mps 664 mmHg 60%
04:00 +16°C° 0 mm 3 mps 664 mmHg 66%
05:00 +16°C° 0 mm 2 mps 664 mmHg 72%
06:00 +15°C° 0 mm 2 mps 664 mmHg 78%
07:00 +16°C° 0 mm 2 mps 665 mmHg 73%
08:00 +17°C° 0 mm 2 mps 666 mmHg 68%
09:00 +18°C° 0 mm 2 mps 666 mmHg 62%
10:00 +18°C° 0 mm 4 mps 666 mmHg 58%
11:00 +19°C° 0 mm 5 mps 667 mmHg 53%
12:00 +20°C° 0 mm 7 mps 667 mmHg 49%
13:00 +18°C° 0 mm 7 mps 667 mmHg 44%
14:00 +18°C° 0 mm 7 mps 667 mmHg 40%
15:00 +18°C° 0 mm 7 mps 667 mmHg 36%
16:00 +17°C° 0 mm 5 mps 667 mmHg 41%
17:00 +17°C° 0 mm 4 mps 667 mmHg 47%
18:00 +14°C° 0 mm 3 mps 667 mmHg 52%
19:00 +15°C° 0 mm 2 mps 668 mmHg 58%
20:00 +14°C° 0 mm 2 mps 668 mmHg 64%
21:00 +13°C° 0 mm 1 mps 669 mmHg 69%
22:00 +13°C° 0 mm 1 mps 668 mmHg 70%
23:00 +13°C° 0 mm 1 mps 668 mmHg 70%

4 October, Sunday

Time Temperature Precipitation Wind Pressure Humidity
00:00 +12°C° 0 mm 1 mps 668 mmHg 70%
01:00 +12°C° 0 mm 1 mps 668 mmHg 69%
02:00 +11°C° 0 mm 1 mps 667 mmHg 68%
03:00 +11°C° 0 mm 1 mps 667 mmHg 66%
04:00 +11°C° 0 mm 1 mps 667 mmHg 64%
05:00 +11°C° 0 mm 1 mps 667 mmHg 62%
06:00 +11°C° 0 mm 1 mps 668 mmHg 59%
07:00 +13°C° 0 mm 2 mps 668 mmHg 49%
08:00 +13°C° 0 mm 3 mps 669 mmHg 39%
09:00 +16°C° 0 mm 3 mps 669 mmHg 29%
10:00 +18°C° 0 mm 4 mps 670 mmHg 26%
11:00 +19°C° 0 mm 6 mps 670 mmHg 23%
12:00 +21°C° 0 mm 7 mps 670 mmHg 20%
13:00 +21°C° 0 mm 7 mps 670 mmHg 22%
14:00 +21°C° 0 mm 7 mps 669 mmHg 24%
15:00 +21°C° 0 mm 7 mps 669 mmHg 26%
16:00 +19°C° 0 mm 6 mps 669 mmHg 30%
17:00 +18°C° 0 mm 4 mps 669 mmHg 34%
18:00 +17°C° 0 mm 3 mps 668 mmHg 38%
19:00 +16°C° 0 mm 2 mps 668 mmHg 42%
20:00 +16°C° 0 mm 2 mps 669 mmHg 46%
21:00 +15°C° 0 mm 1 mps 669 mmHg 50%
22:00 +14°C° 0 mm 1 mps 669 mmHg 51%
23:00 +14°C° 0 mm 1 mps 668 mmHg 52%

5 October, Monday

Time Temperature Precipitation Wind Pressure Humidity
00:00 +14°C° 0 mm 1 mps 668 mmHg 53%
01:00 +13°C° 0 mm 1 mps 668 mmHg 54%
02:00 +13°C° 0 mm 1 mps 668 mmHg 55%
03:00 +13°C° 0 mm 1 mps 667 mmHg 56%
04:00 +13°C° 0 mm 1 mps 668 mmHg 57%
05:00 +12°C° 0 mm 1 mps 668 mmHg 58%
06:00 +12°C° 0 mm 1 mps 668 mmHg 60%
07:00 +14°C° 0 mm 2 mps 669 mmHg 53%
08:00 +15°C° 0 mm 2 mps 669 mmHg 46%
09:00 +17°C° 0 mm 2 mps 670 mmHg 39%
10:00 +18°C° 0 mm 3 mps 670 mmHg 35%
11:00 +19°C° 0 mm 3 mps 670 mmHg 32%
12:00 +20°C° 0 mm 4 mps 670 mmHg 29%
13:00 +20°C° 0 mm 4 mps 670 mmHg 30%
14:00 +20°C° 0 mm 4 mps 670 mmHg 31%
15:00 +20°C° 0 mm 4 mps 670 mmHg 33%
16:00 +19°C° 0 mm 4 mps 670 mmHg 40%
17:00 +18°C° 0 mm 3 mps 670 mmHg 47%
18:00 +17°C° 0 mm 3 mps 670 mmHg 55%
19:00 +16°C° 0 mm 3 mps 670 mmHg 58%
20:00 +16°C° 0 mm 2 mps 670 mmHg 62%
21:00 +15°C° 0 mm 2 mps 670 mmHg 66%
22:00 +15°C° 0 mm 2 mps 670 mmHg 69%
23:00 +14°C° 0 mm 2 mps 670 mmHg 73%
Show more